Location: Colebrook
(42.0017°N, 73.0973°W)
Time: 16:03:00
(UTC-05:00)

Vanguard 2 - Pass Details

Date: 29 October 2021
Orbit: 554 x 2936 km, 32.9° (Epoch: 04 December)

Event Time Altitude Azimuth Distance (km) Brightness Sun altitude
Rises 20:39:35 0° 183° (S) 6,646 12.2 -32.0°
Reaches altitude 10° 20:47:41 10° 162° (SSE) 5,756 11.7 -33.5°
Enters shadow 20:49:07 11° 158° (SSE) 5,642 11.6 -33.7°
